Flag for U.S.A. Weather past 2 weeks in Sunrise Manor, Nevada, U.S.A.

Now
43 °F

Clear.


Feels Like: 43 °F
Forecast: 41 / 59 °F
Wind: No wind

Location: Nellis Air Force Base

Current Time: Mar 4, 2015 at 5:20:35 AM

Latest Report: Mar 4, 2015 at 4:58 AM


Visibility: 10 mi

Pressure: 30.07 "Hg

Humidity: 43%

Dew point: 21 °F

Location of Sunrise ManorLocation

Historic Weather in Sunrise Manor — Graph

°F

Sunrise Manor temperature yesterday

Maximum temperature yesterday: 58 °F (at 3:58 PM)
Minimum temperature yesterday: 38 °F (at 6:58 AM)
Average temperature yesterday: 49 °F

Past Weeks' High & Low Weather Summary

 TemperatureHumidityPressure
High73 °F (Feb 20, 2:58 PM)100% (Mar 2, 6:01 AM)30.23 "Hg (Mar 2, 6:01 AM)
Low38 °F (Mar 3, 6:58 AM)11% (Feb 18, 2:58 PM)29.50 "Hg (Feb 27, 11:58 PM)
Average54 °F43%29.92 "Hg
* Reported Feb 17 3:58 AM — Mar 4 3:58 AM, Sunrise Manor, Weather by CustomWeather, © 2015

Note: Actual official high and low records may vary slightly from our data, if they occured in-between our weather recording intervals... More about our weather records

Advertising

Sunrise Manor weather history for previous 24 hours

 ConditionsComfort  
Time TempWeatherWind HumidityBarometerVisibility
3:58 AM
Wed, Mar 4
42 °FClear.3 mph50%30.05 "Hg10 mi
2:58 AM44 °FClear.No wind43%30.04 "Hg10 mi
1:58 AM46 °FClear.12 mph39%30.04 "Hg10 mi
12:58 AM47 °FClear.8 mph35%30.03 "Hg10 mi
11:58 PM
Tue, Mar 3
48 °FClear.9 mph35%30.01 "Hg10 mi
10:58 PM49 °FPassing clouds.15 mph34%29.97 "Hg10 mi
9:58 PM51 °FOvercast.18 mph35%29.96 "Hg10 mi
8:58 PM51 °FPartly cloudy.14 mph63%29.95 "Hg10 mi
7:58 PM50 °FMostly cloudy.12 mph67%29.93 "Hg10 mi
6:58 PM51 °FPassing clouds.15 mph70%29.91 "Hg10 mi
5:58 PM53 °FPassing clouds.12 mph55%29.88 "Hg10 mi
4:58 PM56 °FPartly sunny.8 mph49%29.83 "Hg10 mi
3:58 PM58 °FSunny.14 mph44%29.83 "Hg10 mi
2:58 PM57 °FPartly sunny.8 mph44%29.83 "Hg10 mi
1:58 PM55 °FOvercast.14 mph46%29.83 "Hg10 mi
12:58 PM57 °FScattered clouds.8 mph46%29.86 "Hg10 mi
11:58 AM54 °FSunny.3 mph52%29.89 "Hg10 mi
10:58 AM52 °FSunny.No wind61%29.93 "Hg10 mi
9:58 AM49 °FSunny.1 mph69%29.93 "Hg10 mi
8:58 AM46 °FSunny.3 mph78%29.95 "Hg10 mi
7:58 AM43 °FSunny.1 mph84%29.94 "Hg10 mi
6:58 AM38 °FSunny.1 mph99%29.92 "Hg10 mi
5:58 AM40 °FClear.2 mph92%29.92 "Hg10 mi
Weather by CustomWeather, © 2015

See weather overviewHow to use our weather pages